www.pogodaiklimat.ru

ПОГОДА в Калтаге, AK

  • Прогноз погоды в Калтаге
  • Монитор погоды в Калтаге
  • Климат в Калтаге

АРХИВ ПОГОДЫ в Калтаге

Время (UTC), дата Ветер
(напр.,м/с)
 
Видим.   Явления Облачность Т
(С)
Тd
(С)
f
(%)
Тe
(С)
Тes
(С)
Комфортность

P
(гПа)

Po
(гПа)
Тmin
(С)
Tmax
(С)
R
(мм)
SD
(см)
10:53 23.03 СВ  16 км    2/0 2550 м
[средняя] 
+0.6  -5.6  63  -6  -6    1004.2  997.5  0.0  +2.8     
11:53 23.03 СВ  16 км    10/0 2400 м
[средняя] 
+1.7  -4.4  64  -3  -3    1004.2  997.5         
12:53 23.03 СВ  16 км    2/0 2400 м
[средняя] 
+1.1  -5.0  64  -4  -4    1004.3  997.5         
13:53 23.03 СВ  16 км    8/0 2550 м
[средняя] 
+0.6  -5.6  63  -6  -6    1004.7  997.9         
14:53 23.03 СВ  16 км    10/0 2250 м
[средняя] 
+0.6  -5.6  63  -4  -4    1005.0  998.2         
15:53 23.03 СВ  16 км    ясно  -0.6  -6.1  66  -6  -6    1005.3  998.5         
16:53 23.03 СВ  16 км    2/0 3600 м
[средняя] 
0.0  -6.1  63  -5  -5    1005.8  998.9  -0.6  +1.7     
17:53 23.03 СВ  16 км    ясно  +0.6  -5.6  63  -4  -4    1006.0  999.2         
18:53 23.03 СВ  16 км    ясно  +1.1  -6.1  59  -4  -3    1006.3  999.6         
19:53 23.03 СВ  16 км    ясно  +2.2  -5.6  56  -2  0    1006.4  999.6         
20:53 23.03 СВ  16 км    ясно  +1.7  -4.4  64  -3  -1    1007.0  1000.2         
21:53 23.03 СВ  16 км    ясно  +2.2  -3.9  64  -2  +1    1007.2  1000.2         
22:53 23.03 СВ  16 км    2/0 3600 м
[средняя] 
+3.3  -2.8  64  -0  +3    1007.2  1000.2  0.0  +3.3     
23:53 23.03 СВ  16 км    ясно  +3.3  -2.8  64  +1  +6    1007.6  1000.9         
00:53 24.03   16 км    ясно  +2.2  -3.9  64  +2  +6    1008.2  1001.2         
01:53 24.03   16 км    8/0 2250 м
[средняя] 
+3.3  -4.4  57  +3  +4    1008.5  1001.6         
02:53 24.03   16 км    10/0 2100 м
[средняя] 
+3.9  -4.4  55  +3  +4    1009.1  1002.2         
03:53 24.03   13 км    10/10 1950 м  +1.1  -3.3  72  0  0    1009.7  1002.9         
04:53 24.03   16 км    10/0 2850 м
[средняя] 
-0.6  -3.9  78  -2  -2    1010.1  1003.3  -1.1  +4.4     
05:53 24.03   16 км    8/8 1320 м  -1.7  -3.3  89  -3  -3    1010.8  1003.9         
06:53 24.03   16 км    10/10 1110 м  -2.0            1011.3  1004.6         
07:53 24.03   16 км    10/10 1080 м  -1.0            1011.5  1004.6         
08:53 24.03 ЮЗ  16 км    10/10 1800 м  -1.0            1011.8  1004.9         
09:53 24.03   16 км    10/10 1800 м  -1.0            1012.2  1005.3         
10:53 24.03   16 км    10/10 1800 м  -2.0            1012.5  1005.6  -3.9  0.0     
11:53 24.03   16 км    2/2 1800 м  -3.0            1012.8  1005.9         
12:53 24.03   16 км    2/2 1800 м  -5.0            1013.0  1006.3         
13:53 24.03   16 км    10/0 2100 м
[средняя] 
-3.0            1013.0  1005.9         
14:53 24.03   16 км    10/10 1800 м  -3.0            1012.9  1005.9         
15:53 24.03   16 км    10/10 1950 м  -2.0            1013.1  1006.3         
16:53 24.03   16 км    10/0 2250 м
[средняя] 
-1.0            1012.9  1005.9  -5.6  -1.1     
17:53 24.03 СВ  16 км    5/5 1950 м  -1.0            1012.4  1005.6         
18:53 24.03   16 км    5/5 1950 м  +1.0            1012.2  1005.3         
19:53 24.03 нст  16 км    8/8 1140 м  +6.0            1011.6  1004.9         
20:49 24.03 Ю  4
{11} 
10 км  слабый дождь  10/10 660 м  +4.0              1004.9         
20:53 24.03 ЮЗ  5
{10} 
8 км  слабый дождь  10/10 600 м  +3.0            1011.7  1004.9         
21:53 24.03 нст  16 км  слабый дождь  10/10 540 м  +3.0            1011.2  1004.3         
22:53 24.03 Ю  11 км  слабый дождь  10/10 450 м  +3.0            1011.3  1004.3  -1.7  +5.6  2.3   
23:53 24.03 Ю  5
{8} 
16 км    10/10 570 м  +3.0            1011.0  1004.3         
00:53 25.03 ЮЗ  16 км    10/10 630 м  +3.0            1011.6  1004.6         
01:24 25.03 ЮЗ  4
{8} 
16 км    10/8 810 м
[средняя] 
+3.0              1005.3         
01:53 25.03 Ю  16 км    8/8 720 м  +3.3  0.0  79  -1  -1    1012.5  1005.6      0.3   
02:53 25.03 Ю  16 км    10/8 1080 м
[средняя] 
+3.3  -0.6  76  -1  -1    1013.0  1005.9         
03:53 25.03 Ю  16 км    10/5 1650 м
[средняя] 
+2.8  -0.6  78  -2  -2    1013.8  1007.0         
04:51 25.03   16 км    10/10 750 м  +1.0  -1.0  86  -0  -0      1007.6         
04:53 25.03   16 км    10/10 750 м  +1.1  -0.6  88  -0  -0    1014.7  1007.6  +1.1  +3.9  0.3   
05:51 25.03   16 км    10/10 720 м  +2.0  -1.0  80  +1  +1      1008.3         
05:53 25.03 Ю  16 км    10/10 720 м  +1.7  -0.6  85  -1  -1    1015.3  1008.3         

 

Местоположение метеостанции Kaltag Airport: широта 64.3167 долгота -158.7333 высота над уровнем моря 54 м.

В архиве по умолчанию представлена погода в Калтаге за последние 1-2 суток. Обновление информации о фактической погоде в базе происходит ежечасно! Архивные данные за месяц целиком и за предыдущие месяцы Вы можете получить, выбрав интересующий диапазон дат из раскрывающегося списка и нажав кнопку "Ввод!".

Внимание! Архив погоды МЕТАР в базе сайта хранится не более 60 дней. Нет смысла пытаться выбрать более раннюю дату.

Внимание! Время в таблицах - всемирное. Для получения местного времени необходимо прибавить поправку, которая в Калтаге равна -9 ч.

Ветер - указаны скорость ветра в м/с и направление, откуда дует ветер: С - северный, СВ - северо-восточный, В - восточный, ЮВ - юго-восточный, Ю - южный, ЮЗ - юго-западный, З - западный, СЗ - северо-западный.
Видимость - горизонтальная дальность видимости в метрах или километрах. При видимости от 1 до 10 км при отсутствии осадков обычно наблюдается дымка, при ухудшении видимости до 1 км и менее - туман. В сухую погоду видимость может ухудшаться дымом, пылью или мглою.
Атмосферные явления - указаны явления, наблюдавшиеся в указанный момент времени.
Облачность - указаны через наклонную черту верхняя и нижняя облачность в баллах и высота нижней границы облаков в метрах. Внимание: облачность, как и прочие метеорологические величины в США измеряются автоматическими метеостанциями. Указанные значения в баллах носят условный характер и показывают процент времени, в течение которого, в среднем, лазерный луч высотомера отражался от облаков обратно.
T - Температура воздуха - температура, измеренная на высоте 2 м над землей.
Td - Температура точки росы - температура, при понижении до которой содержащийся в воздухе водяной пар достигнет насыщения.
f - Относительная влажность воздуха - влажноcть воздуха, измеренная на высоте 2 м над землей.
Te - Эффективная температура - температура, которую ощущает одетый по сезону человек в тени. Характеристика душности погоды. При расчете учитывается влияние влажности воздуха и скорости ветра на теплоощущения человека.
Tes - Эффективная температура на солнце - температура, которую ощущает человек, с поправкой на солнечный нагрев. Характеристика знойности погоды. Зависит от высоты солнца над горизонтом, облачности и скорости ветра. Ночью, в пасмурную погоду, а также при ветре 12 м/с и более поправка равна нулю.
P - Атмосферное давление - приведенное к уровню моря атмосферное давление.
Po - Атмосферное давление - измеренное на уровне метеостанции атмосферное давление.
Tmin - Минимальная температура - минимум температуры воздуха на высоте 2 м над землей.
Tmax - Максимальная температура - максимум температуры воздуха на высоте 2 м над землей.
R - Количество осадков - Количество выпавших осадков за 3 или 6 часов, мм.
SD - Снежный покров - Высота снежного покрова, см.